• In Deutschland
  • Länderverzeichnis
  • Für 7 Tage
  • Wassertemperatur
  • Satellitenkarten
  • Wetterkarte
  • Widgets
  • user-avatar
    Anmelden

    Stündliche Wetter Baunt

    Heute, 21 September, Freitag

    Zeit Temperatur Niederschläge Wind Luftdruck Luftfeuchtigkeit
    00:00 +1°C° 0.4 mm 3 m/S 663 mmHg 91%
    01:00 +1°C° 0.4 mm 3 m/S 663 mmHg 91%
    02:00 0°C° 0 mm 3 m/S 663 mmHg 92%
    03:00 0°C° 0.3 mm 3 m/S 663 mmHg 92%
    04:00 0°C° 0.3 mm 3 m/S 663 mmHg 92%
    05:00 0°C° 0.3 mm 3 m/S 663 mmHg 92%
    06:00 0°C° 0.3 mm 3 m/S 663 mmHg 91%
    07:00 0°C° 0.3 mm 3 m/S 663 mmHg 91%
    08:00 +1°C° 0.3 mm 3 m/S 663 mmHg 90%
    09:00 +1°C° 0.3 mm 3 m/S 664 mmHg 89%
    10:00 +2°C° 0.3 mm 3 m/S 664 mmHg 88%
    11:00 +3°C° 0.3 mm 3 m/S 665 mmHg 87%
    12:00 +3°C° 0.1 mm 4 m/S 665 mmHg 86%
    13:00 +4°C° 0.1 mm 4 m/S 665 mmHg 85%
    14:00 +4°C° 0 mm 4 m/S 665 mmHg 83%
    15:00 +4°C° 0.4 mm 4 m/S 665 mmHg 84%
    16:00 +3°C° 0.4 mm 4 m/S 665 mmHg 85%
    17:00 +3°C° 0.4 mm 4 m/S 665 mmHg 86%
    18:00 +3°C° 0.2 mm 3 m/S 666 mmHg 88%
    19:00 +2°C° 0.2 mm 3 m/S 666 mmHg 89%
    20:00 +2°C° 0.2 mm 2 m/S 666 mmHg 91%
    21:00 +2°C° 0 mm 2 m/S 666 mmHg 91%
    22:00 +1°C° 0 mm 2 m/S 667 mmHg 91%
    23:00 -1°C° 0 mm 2 m/S 667 mmHg 92%

    Morgen, 22 September, Samstag

    Zeit Temperatur Niederschläge Wind Luftdruck Luftfeuchtigkeit
    00:00 -1°C° 0 mm 2 m/S 667 mmHg 91%
    01:00 -1°C° 0 mm 2 m/S 667 mmHg 91%
    02:00 -1°C° 0 mm 2 m/S 667 mmHg 91%
    03:00 -1°C° 0 mm 2 m/S 668 mmHg 90%
    04:00 -1°C° 0 mm 2 m/S 668 mmHg 90%
    05:00 -1°C° 0 mm 2 m/S 668 mmHg 89%
    06:00 -1°C° 0 mm 2 m/S 668 mmHg 87%
    07:00 +1°C° 0 mm 2 m/S 669 mmHg 85%
    08:00 +2°C° 0 mm 2 m/S 669 mmHg 83%
    09:00 +3°C° 0 mm 2 m/S 669 mmHg 79%
    10:00 +4°C° 0 mm 2 m/S 669 mmHg 76%
    11:00 +5°C° 0 mm 2 m/S 669 mmHg 73%
    12:00 +6°C° 0 mm 2 m/S 669 mmHg 70%
    13:00 +6°C° 0 mm 2 m/S 669 mmHg 68%
    14:00 +7°C° 0 mm 2 m/S 669 mmHg 65%
    15:00 +7°C° 0 mm 2 m/S 669 mmHg 65%
    16:00 +7°C° 0 mm 2 m/S 669 mmHg 66%
    17:00 +6°C° 0 mm 2 m/S 669 mmHg 66%
    18:00 +5°C° 0 mm 2 m/S 669 mmHg 70%
    19:00 +3°C° 0 mm 2 m/S 669 mmHg 74%
    20:00 +2°C° 0 mm 1 m/S 669 mmHg 78%
    21:00 +1°C° 0 mm 1 m/S 669 mmHg 79%
    22:00 +1°C° 0 mm 1 m/S 669 mmHg 80%
    23:00 +1°C° 0 mm 1 m/S 669 mmHg 81%

    übermorgen, 23 September, Sonntag

    Zeit Temperatur Niederschläge Wind Luftdruck Luftfeuchtigkeit
    00:00 0°C° 0 mm 1 m/S 669 mmHg 81%
    01:00 0°C° 0 mm 1 m/S 669 mmHg 82%
    02:00 0°C° 0 mm 1 m/S 669 mmHg 82%
    03:00 0°C° 0 mm 1 m/S 669 mmHg 82%
    04:00 0°C° 0 mm 1 m/S 669 mmHg 82%
    05:00 0°C° 0 mm 1 m/S 669 mmHg 82%
    06:00 +1°C° 0 mm 1 m/S 669 mmHg 78%
    07:00 +1°C° 0 mm 0 m/S 670 mmHg 74%
    08:00 +2°C° 0 mm 0 m/S 670 mmHg 70%
    09:00 +4°C° 0 mm 0 m/S 670 mmHg 65%
    10:00 +5°C° 0 mm 0 m/S 670 mmHg 61%
    11:00 +7°C° 0 mm 0 m/S 670 mmHg 57%
    12:00 +7°C° 0 mm 0 m/S 669 mmHg 54%
    13:00 +8°C° 0 mm 0 m/S 669 mmHg 51%
    14:00 +9°C° 0 mm 0 m/S 669 mmHg 49%
    15:00 +9°C° 0 mm 0 m/S 669 mmHg 51%
    16:00 +8°C° 0 mm 0 m/S 668 mmHg 53%
    17:00 +8°C° 0 mm 0 m/S 668 mmHg 55%
    18:00 +6°C° 0 mm 0 m/S 668 mmHg 58%
    19:00 +4°C° 0 mm 0 m/S 668 mmHg 62%
    20:00 +2°C° 0 mm 0 m/S 667 mmHg 65%
    21:00 +2°C° 0 mm 0 m/S 667 mmHg 66%
    22:00 +1°C° 0 mm 0 m/S 667 mmHg 67%
    23:00 +1°C° 0 mm 0 m/S 667 mmHg 67%

    24 September, Montag

    Zeit Temperatur Niederschläge Wind Luftdruck Luftfeuchtigkeit
    00:00 +1°C° 0 mm 0 m/S 667 mmHg 68%
    01:00 +1°C° 0 mm 0 m/S 667 mmHg 68%
    02:00 +1°C° 0 mm 0 m/S 667 mmHg 68%
    03:00 +1°C° 0 mm 0 m/S 667 mmHg 69%
    04:00 0°C° 0 mm 0 m/S 667 mmHg 69%
    05:00 0°C° 0 mm 0 m/S 666 mmHg 69%
    06:00 +2°C° 0 mm 1 m/S 667 mmHg 65%
    07:00 +4°C° 0 mm 1 m/S 667 mmHg 62%
    08:00 +5°C° 0 mm 1 m/S 667 mmHg 58%
    09:00 +6°C° 0 mm 1 m/S 667 mmHg 56%
    10:00 +8°C° 0 mm 1 m/S 667 mmHg 53%
    11:00 +9°C° 0 mm 1 m/S 667 mmHg 50%
    12:00 +9°C° 0 mm 2 m/S 667 mmHg 49%
    13:00 +10°C° 0 mm 2 m/S 666 mmHg 47%
    14:00 +10°C° 0 mm 2 m/S 666 mmHg 45%
    15:00 +10°C° 0 mm 2 m/S 666 mmHg 49%
    16:00 +10°C° 0 mm 1 m/S 666 mmHg 53%
    17:00 +10°C° 0 mm 1 m/S 665 mmHg 56%
    18:00 +8°C° 0 mm 1 m/S 665 mmHg 62%
    19:00 +6°C° 0 mm 1 m/S 665 mmHg 67%
    20:00 +4°C° 0 mm 1 m/S 665 mmHg 73%
    21:00 +3°C° 0 mm 1 m/S 665 mmHg 75%
    22:00 +3°C° 0 mm 1 m/S 665 mmHg 77%
    23:00 +3°C° 0 mm 1 m/S 665 mmHg 79%

    25 September, Dienstag

    Zeit Temperatur Niederschläge Wind Luftdruck Luftfeuchtigkeit
    00:00 +3°C° 0 mm 1 m/S 665 mmHg 80%
    01:00 +2°C° 0 mm 1 m/S 664 mmHg 81%
    02:00 +2°C° 0 mm 1 m/S 664 mmHg 82%
    03:00 +2°C° 0 mm 1 m/S 664 mmHg 83%
    04:00 +2°C° 0 mm 1 m/S 664 mmHg 84%
    05:00 +2°C° 0 mm 1 m/S 664 mmHg 84%
    06:00 +3°C° 0 mm 1 m/S 664 mmHg 81%
    07:00 +4°C° 0 mm 1 m/S 665 mmHg 77%
    08:00 +5°C° 0 mm 1 m/S 665 mmHg 74%
    09:00 +7°C° 0 mm 1 m/S 665 mmHg 69%
    10:00 +8°C° 0 mm 1 m/S 665 mmHg 65%
    11:00 +8°C° 0 mm 2 m/S 665 mmHg 60%
    12:00 +9°C° 0 mm 2 m/S 664 mmHg 57%
    13:00 +10°C° 0 mm 2 m/S 664 mmHg 54%
    14:00 +10°C° 0 mm 2 m/S 664 mmHg 51%
    15:00 +10°C° 0 mm 2 m/S 664 mmHg 55%
    16:00 +10°C° 0 mm 2 m/S 664 mmHg 58%
    17:00 +10°C° 0 mm 1 m/S 663 mmHg 61%
    18:00 +8°C° 0 mm 1 m/S 663 mmHg 67%
    19:00 +7°C° 0 mm 1 m/S 663 mmHg 73%
    20:00 +5°C° 0 mm 1 m/S 663 mmHg 79%
    21:00 +4°C° 0 mm 1 m/S 663 mmHg 81%
    22:00 +4°C° 0 mm 1 m/S 663 mmHg 83%
    23:00 +4°C° 0 mm 1 m/S 663 mmHg 85%

    26 September, Mittwoch

    Zeit Temperatur Niederschläge Wind Luftdruck Luftfeuchtigkeit
    00:00 +4°C° 0 mm 1 m/S 663 mmHg 86%
    01:00 +4°C° 0 mm 1 m/S 663 mmHg 87%
    02:00 +3°C° 0 mm 1 m/S 662 mmHg 88%
    03:00 +3°C° 0 mm 1 m/S 662 mmHg 88%
    04:00 +3°C° 0 mm 1 m/S 662 mmHg 88%
    05:00 +3°C° 0 mm 1 m/S 662 mmHg 89%
    06:00 +4°C° 0 mm 1 m/S 662 mmHg 86%
    07:00 +5°C° 0 mm 1 m/S 663 mmHg 83%
    08:00 +6°C° 0 mm 1 m/S 663 mmHg 80%
    09:00 +7°C° 0 mm 1 m/S 663 mmHg 77%
    10:00 +8°C° 0 mm 1 m/S 663 mmHg 74%
    11:00 +10°C° 0 mm 1 m/S 662 mmHg 71%
    12:00 +10°C° 0 mm 1 m/S 662 mmHg 69%
    13:00 +11°C° 0 mm 1 m/S 662 mmHg 68%
    14:00 +11°C° 0 mm 1 m/S 662 mmHg 67%
    15:00 +11°C° 0 mm 1 m/S 661 mmHg 69%
    16:00 +10°C° 0 mm 1 m/S 661 mmHg 72%
    17:00 +10°C° 0 mm 1 m/S 661 mmHg 75%
    18:00 +9°C° 0 mm 1 m/S 661 mmHg 80%
    19:00 +6°C° 0 mm 0 m/S 661 mmHg 84%
    20:00 +5°C° 0 mm 0 m/S 661 mmHg 89%
    21:00 +5°C° 0 mm 0 m/S 661 mmHg 90%
    22:00 +4°C° 0 mm 0 m/S 660 mmHg 91%
    23:00 +4°C° 0 mm 0 m/S 660 mmHg 92%
    Mehr zeigen